Dewpoint
55 56 56 56 57 58 59 63 65 65 66 68 70 70 70 70 70 69 68 68 67 67 70 69 70 73 73 73 73 72 72 71 71
55 56 56 55 57 58 59 63 65 66 66 66 70 69 70 71 71 70 69 68 69 68 70 71 71 71 73 73 73 72 72 71 71
55 57 55 54 57 58 59 62 65 67 67 66 69 70 69 69 70 73 70 68 69 71 69 70 71 71 73 73 72 72 73 72 72
53 55 54 53 56 58 58 60 64 68 68 68 69 71 71 70 69 69 73 70 67 68 70 69 70 71 72 73 73 72 72 72 73
52 53 54 54 57 57 58 59 62 66 69 69 70 71 71 71 71 70 69 73 70 68 69 71 69 72 72 72 73 73 72 72 72
48 51 53 55 56 57 58 58 61 65 69 70 70 70 70 71 71 71 69 70 72 71 68 70 72 73 72 72 72 72 73 72 72
40 49 54 55 56 57 58 58 60 64 65 70 70 70 71 70 71 71 71 70 70 72 72 68 70 73 73 73 73 72 72 73 73
43 52 54 55 57 57 59 59 59 63 64 68 70 71 71 71 71 72 72 72 71 70 71 73 69 70 72 74 73 73 73 72 72
46 52 55 56 57 58 59 59 60 62 63 66 69 70 71 71 72 72 72 73 73 71 71 70 72 71 72 72 73 69 68 71 72
44 51 55 57 58 58 59 60 60 61 62 64 68 70 70 71 72 73 73 73 73 73 73 72 70 70 72 72 72 66 66 68 72
50 51 50 48 55 58 61 61 60 61 62 63 64 66 70 71 72 72 73 73 73 73 73 73 73 71 71 72 72 65 64 66 72
58 56 57 57 57 54 54 62 62 62 62 63 64 65 66 70 71 72 73 72 73 73 73 72 73 73 73 71 72 63 62 64 71
64 60 58 56 55 58 58 58 62 63 62 63 63 64 66 67 70 71 72 72 72 73 73 73 73 72 73 71 73 63 61 64 72
65 65 64 63 65 63 58 57 59 62 64 64 65 66 66 68 68 70 71 72 72 72 73 73 73 73 73 74 73 73 61 60 73
60 63 66 68 70 70 71 68 64 68 67 68 67 69 70 70 70 69 70 71 71 72 72 73 73 73 74 74 75 66 61 59 61
57 60 62 65 68 69 69 70 70 69 70 71 70 69 69 70 71 72 73 73 72 72 73 72 73 73 74 75 75 76 61 59 59
58 59 61 63 64 68 68 69 69 69 69 70 70 70 71 71 71 72 73 73 74 73 74 74 74 74 75 75 75 75 70 68 65
59 60 61 62 64 65 66 67 66 67 68 69 69 70 72 72 72 72 73 66 65 73 74 73 75 75 75 74 72 64 56 59 66
59 60 61 63 63 65 66 66 66 67 68 69 68 68 71 72 73 73 73 66 59 50 48 49 50 52 57 54 52 49 48 46 46
58 59 59 60 62 64 65 65 65 66 68 67 66 67 64 70 70 73 72 64 60 57 56 49 46 47 48 50 49 46 44 47 47
Lifted_Index
-3 -3 -3 -3 -3 -2 -2 -2 -1 -1 -2 -2 -2 -2 -2 -2 -2 -2 -2 -2 -2 -1 -2 -2 -2 -3 -3 -4 -3 -3 -3 -3 -3
-3 -2 -2 -3 -3 -3 -2 -2 -2 -2 -2 -2 -2 -2 -2 -2 -2 -2 -2 -2 -2 -1 -2 -2 -2 -3 -3 -4 -4 -3 -3 -3 -3
-2 -2 -2 -2 -3 -3 -3 -2 -2 -2 -2 -2 -3 -3 -2 -2 -3 -3 -3 -2 -2 -2 -2 -2 -2 -3 -3 -4 -4 -4 -4 -4 -4
-2 -2 -2 -3 -3 -3 -3 -2 -2 -2 -3 -3 -3 -3 -3 -3 -3 -2 -3 -3 -2 -2 -2 -2 -3 -3 -4 -4 -5 -5 -5 -4 -4
-1 -1 -2 -2 -3 -3 -3 -3 -2 -3 -3 -3 -3 -4 -4 -3 -3 -2 -2 -3 -3 -2 -2 -2 -3 -3 -4 -5 -5 -5 -5 -5 -5
-1 -1 -2 -2 -3 -4 -4 -3 -3 -3 -3 -4 -4 -4 -4 -4 -3 -3 -2 -3 -3 -3 -3 -2 -3 -4 -4 -5 -5 -5 -5 -4 -4
-0 -1 -2 -3 -4 -4 -4 -4 -3 -3 -3 -4 -4 -4 -4 -4 -4 -3 -3 -3 -3 -3 -3 -3 -3 -4 -4 -5 -5 -5 -5 -4 -4
-0 -2 -3 -4 -4 -4 -4 -4 -4 -3 -3 -3 -4 -4 -4 -4 -4 -4 -4 -4 -4 -4 -4 -3 -4 -4 -4 -5 -5 -5 -5 -5 -5
-1 -2 -4 -4 -4 -4 -4 -4 -4 -4 -3 -3 -4 -5 -5 -5 -5 -5 -5 -5 -5 -5 -4 -4 -4 -5 -5 -5 -6 -6 -6 -6 -6
-1 -2 -4 -4 -4 -4 -5 -5 -4 -4 -4 -4 -4 -5 -6 -6 -6 -6 -6 -6 -6 -6 -6 -5 -5 -5 -5 -6 -6 -6 -6 -7 -7
-1 -2 -3 -3 -4 -4 -5 -5 -4 -4 -4 -4 -5 -6 -6 -7 -7 -7 -7 -7 -7 -7 -7 -7 -6 -6 -6 -6 -6 -6 -7 -7 -7
-2 -1 -1 -2 -2 -3 -3 -4 -4 -5 -5 -5 -5 -6 -6 -7 -7 -8 -8 -8 -8 -8 -7 -7 -7 -7 -7 -7 -7 -7 -7 -7 -7
-3 -2 -1 -1 -1 -1 -1 -2 -3 -5 -5 -5 -5 -5 -6 -6 -7 -8 -8 -8 -8 -8 -8 -8 -8 -8 -8 -8 -8 -8 -8 -7 -7
-4 -4 -3 -3 -3 -2 -2 -2 -3 -4 -5 -6 -6 -6 -6 -6 -7 -7 -8 -8 -8 -8 -8 -8 -8 -8 -8 -8 -8 -8 -8 -8 -8
-4 -4 -5 -5 -5 -5 -4 -3 -3 -4 -5 -6 -6 -6 -6 -6 -7 -7 -8 -8 -8 -8 -8 -9 -9 -9 -9 -9 -9 -9 -9 -9 -9
-3 -4 -4 -5 -6 -6 -5 -5 -5 -5 -5 -5 -6 -6 -6 -6 -7 -7 -8 -8 -8 -8 -8 -9 -9 -9 -9 -10 -9 -9 -9 -9 -9
-3 -3 -3 -4 -5 -5 -5 -5 -5 -5 -5 -5 -5 -6 -6 -7 -7 -7 -7 -8 -8 -8 -8 -9 -9 -9 -9 -9 -9 -9 -9 -9 -9
-2 -1 -1 -2 -3 -4 -4 -4 -4 -4 -4 -4 -5 -5 -6 -7 -7 -7 -7 -7 -7 -8 -8 -8 -8 -8 -8 -8 -8 -8 -8 -8 -8
-0 1 1 0 -1 -2 -3 -3 -3 -3 -3 -3 -4 -5 -6 -7 -7 -7 -7 -7 -7 -7 -7 -8 -8 -8 -7 -7 -7 -7 -7 -7 -7
1 2 2 2 0 -1 -2 -2 -2 -2 -2 -3 -3 -4 -5 -6 -7 -7 -7 -7 -6 -6 -7 -7 -7 -7 -7 -6 -6 -6 -6 -6 -6